Tracking 19146 objects as of 23-Apr-2018
HD Live streaming from Space Station
objects crossing your sky now

FLOCK 2K 34

Track FLOCK 2K 34 now!
10-day predictions
FLOCK 2K 34 is classified as:


NORAD ID: 42878
Int'l Code: 2017-042BF
Perigee: 456.5 km
Apogee: 470.9 km
Inclination: 97.0 °
Period: 93.7 minutes
Semi major axis: 6834 km
RCS: Unknown
Launch date: July 14, 2017
Source: United States (US)
Launch site: TYURATAM MISSILE AND SPACE COMPLEX (TTMTR)
aabbcc
Your satellite tracking list
Your tracking list is empty




NASA's NSSDC Master Catalog

Two Line Element Set (TLE):
1 42878U 17042BF  18112.65880357 +.00003685 +00000-0 +10555-3 0  9999
2 42878 096.9850 012.1048 0010570 310.3764 049.6558 15.36462596043114
Source of the keplerian elements: AFSPC